Weather History for KUUU - June, 2013

Change the Weather History Date:

Monday, June 3, 2013

  Actual Average (KPVD) Record (KPVD)
Temperature  
Mean Temperature 62 °F 64 °F  
Max Temperature 66 °F 74 °F 95 °F (1943)
Min Temperature 59 °F 54 °F 42 °F (1915)
Degree Days  
Heating Degree Days 2 3  
Month to date heating degree days 9  
Since 1 June heating degree days 9  
Since 1 July heating degree days 5584  
Cooling Degree Days 0 2  
Month to date cooling degree days 6  
Year to date cooling degree days 32  
Since 1 June cooling degree days 6  
Growing Degree Days 12 (Base 50)    
Moisture  
Dew Point 61 °F    
Average Humidity 97    
Maximum Humidity 100    
Minimum Humidity 93    
Precipitation  
Precipitation 0.48 in 0.14 in 1.36 in (2006)
Month to date precipitation 0.43  
Year to date precipitation 20.50  
Snow  
Snow 0.00 in 0.00 in 0.00 in (2002)
Month to date snowfall 0.0  
Since 1 June snowfall 0.0  
Since 1 July snowfall 33.8  
Snow Depth -    
Sea Level Pressure  
Sea Level Pressure 29.84 in    
Wind  
Wind Speed 7 mph (SSW)    
Max Wind Speed 12 mph    
Max Gust Speed 22 mph    
Visibility 3 miles    
Events Fog , Rain , Thunderstorm    
T = Trace of Precipitation, MM = Missing Value Source: NWS Daily Summary

Daily Weather History Graph

Daily Weather History Graph

Search for Another Location

Airport or City:

Trip Planner

Search our weather history database for the weather conditions in past years. The results will help you decide how hot, cold, wet, or windy it might be!

Date:

Astronomy

Jun. 03, 2013 Rise Set
Actual Time 5:12 AM EDT 8:14 PM EDT
Civil Twilight 4:39 AM EDT 8:47 PM EDT
Nautical Twilight 3:56 AM EDT 9:30 PM EDT
Astronomical Twilight 3:06 AM EDT 10:20 PM EDT
Moon 2:12 AM EDT (6/3) 3:39 PM EDT (6/3)
Length of Visible Light 16h 08m
Length of Day
15h 01m
Waning Crescent, 22% of the Moon is Illuminated
Jun 3
Waning Crescent
Jun 8
New
Jun 16
First Quarter
Jun 23
Full
Jun 30
Last Quarter

Hourly Weather History & Observations

Time (EDT) Temp. Dew Point Humidity Pressure Visibility Wind Dir Wind Speed Gust Speed Precip Events Conditions
12:53 AM 61.0 °F 59.0 °F 93% 29.86 in 7.0 mi South 9.2 mph 16.1 mph N/A   Overcast
1:53 AM 62.1 °F 60.1 °F 93% 29.85 in 7.0 mi SSW 9.2 mph 18.4 mph N/A   Overcast
2:43 AM 60.8 °F 60.8 °F 100% 29.83 in 5.0 mi SSW 9.2 mph 18.4 mph N/A   Overcast
2:53 AM 61.0 °F 60.1 °F 97% 29.83 in 5.0 mi SSW 10.4 mph 17.3 mph N/A   Overcast
3:28 AM 60.8 °F 59.0 °F 94% 29.84 in 5.0 mi SSW 11.5 mph 21.9 mph 0.00 in Rain , Thunderstorm Light Rain
3:53 AM 62.1 °F 61.0 °F 96% 29.84 in 2.5 mi SSW 5.8 mph - 0.07 in Rain , Thunderstorm Heavy Thunderstorms and Rain
4:15 AM 62.6 °F 60.8 °F 94% 29.85 in 4.0 mi SSW 5.8 mph - 0.10 in Rain , Thunderstorm Rain
4:53 AM 62.1 °F 61.0 °F 96% 29.85 in 4.0 mi Variable 6.9 mph 17.3 mph 0.12 in Rain Light Rain
5:53 AM 61.0 °F 60.1 °F 97% 29.86 in 3.0 mi Variable 5.8 mph - 0.04 in Rain Light Rain
5:59 AM 60.8 °F 60.8 °F 100% 29.86 in 1.8 mi Variable 5.8 mph - 0.02 in Rain Rain
6:28 AM 62.6 °F 60.8 °F 94% 29.86 in 3.0 mi SSW 6.9 mph - 0.12 in Rain Light Rain
6:53 AM 62.1 °F 61.0 °F 96% 29.87 in 3.0 mi Variable 4.6 mph - 0.12 in Rain Light Rain
7:17 AM 62.6 °F 62.6 °F 100% 29.87 in 2.0 mi Variable 5.8 mph - 0.00 in   Overcast
7:36 AM 62.6 °F 62.6 °F 100% 29.86 in 1.5 mi Variable 6.9 mph - 0.00 in   Overcast
7:53 AM 62.1 °F 61.0 °F 96% 29.86 in 1.8 mi SSW 5.8 mph - 0.00 in   Overcast
8:02 AM 62.6 °F 62.6 °F 100% 29.86 in 2.0 mi SSW 8.1 mph - N/A   Overcast
8:29 AM 62.6 °F 60.8 °F 94% 29.86 in 1.5 mi SSW 8.1 mph - N/A   Overcast
8:41 AM 62.6 °F 60.8 °F 94% 29.86 in 3.0 mi SSW 10.4 mph 17.3 mph 0.00 in Rain Light Rain
8:53 AM 62.1 °F 61.0 °F 96% 29.86 in 3.0 mi SSW 8.1 mph - 0.00 in Rain Light Rain
9:03 AM 60.8 °F 60.8 °F 100% 29.86 in 2.5 mi Variable 4.6 mph - 0.00 in Rain Light Rain
9:39 AM 60.8 °F 60.8 °F 100% 29.86 in 1.5 mi SSW 5.8 mph - 0.02 in Rain Rain
9:53 AM 61.0 °F 60.1 °F 97% 29.85 in 2.0 mi Variable 5.8 mph - 0.05 in Rain Rain
10:02 AM 60.8 °F 60.8 °F 100% 29.86 in 4.0 mi SSW 5.8 mph - 0.00 in Rain Light Rain
10:19 AM 62.6 °F 60.8 °F 94% 29.85 in 2.0 mi Variable 4.6 mph - 0.01 in Rain Light Rain
10:29 AM 62.6 °F 60.8 °F 94% 29.85 in 4.0 mi SSW 6.9 mph - 0.01 in Rain Light Rain
10:39 AM 62.6 °F 62.6 °F 100% 29.85 in 1.8 mi SSW 4.6 mph - 0.01 in   Overcast
10:53 AM 63.0 °F 62.1 °F 97% 29.85 in 1.8 mi SSW 5.8 mph - 0.01 in   Overcast
11:00 AM 62.6 °F 62.6 °F 100% 29.85 in 2.5 mi Variable 6.9 mph - N/A   Overcast
11:18 AM 62.6 °F 62.6 °F 100% 29.85 in 1.8 mi SSW 9.2 mph - 0.03 in Rain Rain
11:28 AM 62.6 °F 62.6 °F 100% 29.85 in 3.0 mi SSW 8.1 mph - 0.04 in Rain Light Rain
11:53 AM 63.0 °F 62.1 °F 97% 29.85 in 3.0 mi Variable 6.9 mph - 0.05 in Rain Light Rain
12:04 PM 62.6 °F 62.6 °F 100% 29.85 in 2.0 mi SSW 8.1 mph - 0.02 in Rain Rain
12:14 PM 62.6 °F 62.6 °F 100% 29.85 in 7.0 mi SSW 8.1 mph - 0.02 in Rain Light Rain
12:53 PM 64.0 °F 63.0 °F 96% 29.85 in 5.0 mi Variable 3.5 mph - 0.02 in Rain Light Rain
1:46 PM 66.2 °F 64.4 °F 94% 29.84 in 10.0 mi SSW 5.8 mph - 0.00 in   Overcast
1:53 PM 66.0 °F 64.9 °F 96% 29.83 in 10.0 mi SSW 5.8 mph - 0.00 in   Overcast
2:12 PM 64.4 °F 64.4 °F 100% 29.83 in 10.0 mi SSW 6.9 mph - N/A   Overcast
2:53 PM 62.1 °F 61.0 °F 96% 29.83 in 10.0 mi SSW 6.9 mph - 0.00 in   Overcast
3:05 PM 62.6 °F 60.8 °F 94% 29.83 in 1.8 mi SSW 5.8 mph - N/A   Overcast
3:42 PM 62.6 °F 60.8 °F 94% 29.84 in 2.5 mi SSW 6.9 mph - 0.00 in Rain Light Rain
3:53 PM 62.1 °F 61.0 °F 96% 29.83 in 1.5 mi SSW 8.1 mph - 0.00 in Rain Light Rain
4:04 PM 62.6 °F 60.8 °F 94% 29.82 in 0.5 mi South 9.2 mph - 0.00 in Fog , Rain Light Rain
4:53 PM 62.1 °F 62.1 °F 100% 29.82 in 0.2 mi Variable 5.8 mph - 0.00 in Fog Fog
5:53 PM 61.0 °F 61.0 °F 100% 29.81 in 0.2 mi South 8.1 mph - N/A Fog Fog
6:53 PM 61.0 °F 61.0 °F 100% 29.81 in 0.2 mi SSW 4.6 mph - N/A Fog Fog
7:53 PM 61.0 °F 60.1 °F 97% 29.82 in 0.2 mi South 6.9 mph - N/A Fog Fog
8:53 PM 59.0 °F 59.0 °F 100% 29.81 in 0.2 mi SSW 8.1 mph - N/A Fog Fog
9:53 PM 60.1 °F 59.0 °F 96% 29.82 in 0.2 mi Calm Calm - N/A Fog Fog
10:53 PM 60.1 °F 59.0 °F 96% 29.82 in 0.2 mi Calm Calm - N/A Fog Fog
11:53 PM 60.1 °F 59.0 °F 96% 29.82 in 0.2 mi WNW 3.5 mph - N/A Fog Fog